This demonstration page uses our WeatherBlox Daily Observations layout. Learn more.

Left ArrowRight Arrow

Hourly Observations for May 1, 2018

Temp ( °F °C ) Dew Point ( °F °C ) Humidity (%) Winds ( mph kmh ) Pressure ( in mb ) Visibility ( mi km ) Precip ( " mm )
12:15 am 00:15 Clear 68 20.2 58 14.2 69 69 S 18 30 29.53 1000 10 16 N/A
12:35 am 00:35 Clear 68 19.8 58 14.3 71 71 S 21 33 29.53 1000 10 16 N/A
12:55 am 00:55 Clear 67 19.5 58 14.3 72 72 S 21 33 29.53 1000 10 16 N/A
1:15 am 01:15 Clear 67 19.3 58 14.5 74 74 S 18 30 29.56 1001 10 16 N/A
1:35 am 01:35 Clear 66 19 58 14.5 75 75 S 16 26 29.56 1001 10 16 N/A
1:55 am 01:55 Clear 66 19 58 14.7 76 76 S 18 30 29.59 1002 10 16 N/A
2:15 am 02:15 Mostly Cloudy 66 18.7 59 14.8 78 78 SW 7 11 29.62 1003 10 16 N/A
2:35 am 02:35 Cloudy 66 18.8 59 14.8 78 78 W 8 13 29.62 1003 10 16 N/A
2:55 am 02:55 Cloudy 66 18.8 59 14.8 78 78 SW 3 6 29.62 1003 10 16 N/A
3:15 am 03:15 Cloudy 66 18.8 59 14.9 78 78 N N/A 29.62 1003 10 16 N/A
3:35 am 03:35 Cloudy 66 18.8 59 14.9 78 78 N N/A 29.62 1003 10 16 N/A
3:55 am 03:55 Cloudy 65 18.2 59 15 82 82 SSE 6 9 29.62 1003 10 16 N/A
4:15 am 04:15 Cloudy 64 17.7 59 14.8 83 83 SE 8 13 29.62 1003 10 16 N/A
4:35 am 04:35 Cloudy 60 15.8 53 11.5 76 76 N 17 28 29.65 1004 10 16 N/A
4:55 am 04:55 Cloudy 56 13.6 50 10.1 80 80 N 17 28 29.68 1005 10 16 N/A
5:15 am 05:15 Cloudy 55 13 50 9.8 81 81 N 15 24 29.71 1006 10 16 N/A
5:35 am 05:35 Mostly Cloudy 54 12 48 9.1 83 83 NNE 18 30 29.71 1006 10 16 N/A
5:55 am 05:55 Mostly Cloudy 53 11.5 48 8.7 83 83 NNE 17 28 29.71 1006 10 16 N/A
6:15 am 06:15 Cloudy 53 11.6 47 8.6 82 82 N 16 26 29.71 1006 10 16 N/A
6:35 am 06:35 Cloudy 53 11.6 47 8.4 81 81 NNE 25 41 29.71 1006 10 16 N/A
6:55 am 06:55 Cloudy 53 11.5 47 8.3 81 81 NNE 20 31 29.71 1006 10 16 N/A
7:15 am 07:15 Cloudy 53 11.4 47 8.2 81 81 NNE 18 30 29.71 1006 10 16 N/A
7:35 am 07:35 Cloudy 52 11.3 47 8.1 81 81 NNE 20 31 29.74 1007 10 16 N/A
7:55 am 07:55 Cloudy 53 11.5 47 8.3 81 81 NE 17 28 29.74 1007 10 16 N/A
8:15 am 08:15 Cloudy 53 11.5 47 8.3 81 81 NE 17 28 29.74 1007 10 16 N/A
8:35 am 08:35 Cloudy 53 11.9 47 8.5 80 80 NE 17 28 29.71 1006 10 16 N/A
8:55 am 08:55 Cloudy 54 12.1 48 8.7 80 80 NE 17 28 29.74 1007 10 16 N/A
9:15 am 09:15 Cloudy 55 12.6 48 8.9 78 78 NE 16 26 29.71 1006 10 16 N/A
9:35 am 09:35 Cloudy 55 13 48 9.1 77 77 NE 15 24 29.71 1006 10 16 N/A
9:55 am 09:55 Cloudy 56 13.5 49 9.4 76 76 NE 14 22 29.68 1005 10 16 N/A
10:15 am 10:15 Cloudy 58 14.2 50 9.8 75 75 NE 15 24 29.68 1005 10 16 N/A
10:35 am 10:35 Cloudy 58 14.7 50 10 74 74 NE 14 22 29.71 1006 10 16 N/A
10:55 am 10:55 Mostly Cloudy 60 15.6 51 10.7 73 73 NE 12 19 29.68 1005 10 16 N/A
11:15 am 11:15 Mostly Cloudy 62 16.6 53 11.6 73 73 ENE 10 17 29.68 1005 10 16 N/A
11:35 am 11:35 Mostly Cloudy 63 17.3 54 12 71 71 ESE 8 13 29.68 1005 10 16 N/A
11:55 am 11:55 Mostly Cloudy 64 18 55 12.7 71 71 ESE 10 17 29.68 1005 10 16 N/A
12:15 pm 12:15 Mostly Cloudy 65 18.6 55 12.9 70 70 ESE 8 13 29.65 1004 10 16 N/A
12:35 pm 12:35 Cloudy 67 19.5 56 13.5 68 68 E 7 11 29.65 1004 10 16 N/A
12:55 pm 12:55 Cloudy 67 19.7 57 13.9 69 69 SSE 6 9 29.65 1004 10 16 N/A
1:15 pm 13:15 Cloudy 69 20.5 59 14.8 70 70 E 9 15 29.62 1003 10 16 N/A
1:35 pm 13:35 Cloudy 70 21 59 14.8 68 68 E 6 9 29.62 1003 10 16 N/A
1:55 pm 13:55 Mostly Cloudy 73 22.7 58 14.4 60 60 S 10 17 29.59 1002 10 16 N/A
2:15 pm 14:15 Partly Cloudy 74 23.6 56 13.2 52 52 S 15 24 29.59 1002 10 16 N/A
2:35 pm 14:35 Mostly Cloudy 75 23.7 56 13.6 53 53 WSW 9 15 29.56 1001 10 16 N/A
2:55 pm 14:55 Mostly Cloudy 77 25 55 12.9 47 47 SW 12 19 29.56 1001 10 16 N/A
3:15 pm 15:15 Partly Cloudy 77 24.8 55 12.5 46 46 W 13 20 29.56 1001 10 16 N/A
3:35 pm 15:35 Sunny 77 24.8 54 12.2 45 45 WSW 3 6 29.56 1001 10 16 N/A
3:55 pm 15:55 Partly Cloudy with Nearby Thunderstorms 75 24 56 13.3 51 51 N 17 28 29.56 1001 10 16 N/A
4:15 pm 16:15 Sunny 74 23.6 56 13.4 53 53 NNW 13 20 29.53 1000 10 16 N/A
4:35 pm 16:35 Sunny 72 22.1 55 12.7 55 55 N 16 26 29.56 1001 10 16 N/A
4:55 pm 16:55 Sunny 69 20.6 53 11.7 57 57 N 18 30 29.56 1001 10 16 N/A
5:15 pm 17:15 Sunny 66 19.1 52 11.1 60 60 N 17 28 29.62 1003 10 16 N/A
5:35 pm 17:35 Sunny 65 18.2 52 11 63 63 N 16 26 29.62 1003 10 16 N/A
5:55 pm 17:55 Sunny 64 18 51 10.8 63 63 N 18 30 29.62 1003 10 16 N/A
6:15 pm 18:15 Sunny 63 17.2 51 10.8 66 66 N 16 26 29.65 1004 10 16 N/A
6:35 pm 18:35 Sunny 62 16.9 51 10.8 67 67 N 20 31 29.65 1004 10 16 N/A
6:55 pm 18:55 Sunny 78 25.8 55 12.7 44 44 S 32 52 29.47 998 10 16 N/A
7:15 pm 19:15 Sunny 61 16.2 51 10.7 70 70 N 17 28 29.68 1005 10 16 N/A
7:35 pm 19:35 Sunny 60 15.8 51 10.7 72 72 N 17 28 29.68 1005 10 16 N/A
7:55 pm 19:55 Sunny 60 15.5 51 10.7 73 73 N 16 26 29.68 1005 10 16 N/A
8:15 pm 20:15 Sunny 59 15 51 10.8 76 76 N 14 22 29.71 1006 10 16 N/A
8:35 pm 20:35 Clear 58 14.2 51 10.5 79 79 N 15 24 29.71 1006 10 16 N/A
8:55 pm 20:55 Clear 56 13.5 50 10.2 81 81 N 14 22 29.74 1007 10 16 N/A
9:15 pm 21:15 Clear 55 13 50 10.1 83 83 N 14 22 29.77 1008 10 16 N/A
9:35 pm 21:35 Clear 54 12.3 50 10 86 86 N 14 22 29.77 1008 10 16 N/A
9:55 pm 21:55 Clear 54 12.1 50 10 87 87 N 10 17 29.77 1008 10 16 N/A
10:15 pm 22:15 Partly Cloudy 53 11.6 50 9.9 89 89 N 9 15 29.80 1009 10 16 N/A
10:35 pm 22:35 Cloudy 54 12.3 50 10.1 87 87 N 12 19 29.80 1009 10 16 N/A
10:55 pm 22:55 Cloudy 55 12.5 51 10.4 87 87 N 14 22 29.80 1009 10 16 N/A
11:15 pm 23:15 Cloudy 55 12.5 50 10.2 86 86 N 17 28 29.80 1009 10 16 N/A
11:35 pm 23:35 Mostly Cloudy 54 12.3 50 10.2 87 87 N 16 26 29.80 1009 10 16 N/A
11:55 pm 23:55 Cloudy 55 12.6 51 10.3 86 86 NNE 16 26 29.80 1009 10 16 N/A

Powered by AerisWeather